Regional Weather Roundup
Issued by NWS

Home | Current Version | Previous Version | Text Only | Print | Product List | Glossary Off
Versions: 1 2 3 4 5 6 7 8 9 10 11 12 13 14 15 16 17 18 19 20 21 22 23 24 25 26 27 28 29 30 31 32 33 34 35 36 37 38 39 40 41 42 43 44 45 46 47 48 49 50

913
ASUS44 KJAN 211303
RWRMS

MISSISSIPPI HOURLY WEATHER ROUNDUP
NATIONAL WEATHER SERVICE JACKSON MS
700 AM CST SUN DEC 21 2014

NOTE: "FAIR: INDICATES FEW OR NO CLOUDS BELOW 12,000 FEET WITH NO
SIGNIFICANT WEATHER AND/OR OBSTRUCTIONS TO VISIBILITY.

MSZ001>002-007>008-010>013-018>021-025>028-034>036-211400-
NORTHWEST MISSISSIPPI

CITY           SKY/WX    TMP DP  RH WIND       PRES   REMARKS
CLARKSDALE     FAIR      32  32 100 CALM      30.21S
CLEVELAND      FAIR      34  34  99 CALM      30.19S
GREENWOOD      CLEAR     36  31  82 NE3       30.18S
GREENVILLE     CLEAR     32  31  96 NE3       30.18R FOG
GRENADA        FAIR      28  28 100 CALM      30.20S
OXFORD         FAIR      28  27  93 E3        30.21S
TUNICA         SUNNY     32  32 100 N3        30.22S
$$

MSZ003>006-009-014>017-022>024-029>033-037>039-211400-
NORTHEAST MISSISSIPPI

CITY           SKY/WX    TMP DP  RH WIND       PRES   REMARKS
COLUMBUS AFB   NOT AVBL
CORINTH        FAIR      28  27  93 CALM      30.21S
GOLDN TRIANGLE CLEAR     30  27  86 N5        30.17S WCI  25
STARKVILLE     FAIR      32  32 100 CALM      30.18F
TUPELO         CLEAR     29  26  89 NE6       30.20S WCI  23
$$

MSZ040-058-211400-
CENTRAL MISSISSIPPI

CITY           SKY/WX    TMP DP  RH WIND       PRES   REMARKS
JACKSON INTL   CLEAR     37  34  89 CALM      30.16R
JACKSON HAWKNS CLEAR     36  34  92 CALM      30.16R
MERIDIAN KEY   CLOUDY    37  36  96 N5        30.16S WCI  33
MERIDIAN NAS   CLOUDY    38  36  92 CALM      30.17S
RAYMOND        FAIR      32  27  80 CALM      30.16S FOG
VICKSBURG      CLEAR     35  33  92 NE5       30.16F WCI  31
$$

MSZ059>079-211400-
SOUTH MISSISSIPPI

CITY           SKY/WX    TMP DP  RH WIND       PRES   REMARKS
HATTIESBURG    CLOUDY    45  42  89 VRB3      30.14S
MCCOMB         MOCLDY    42  38  85 NE5       30.13R
NATCHEZ        CLEAR     34  30  86 CALM      30.13F
PINE BELT      CLOUDY    41  37  87 NE6       30.14S
$$

MSZ080>082-211400-
COASTAL MISSISSIPPI

CITY           SKY/WX    TMP DP  RH WIND       PRES   REMARKS
BILOXI         CLOUDY    50  48  93 NE6       30.10S
PASCAGOULA     CLOUDY    50  48  93 NE5       30.10F
GULFPORT       CLOUDY    50  46  86 N6        30.10S
$$



USA.gov is the U.S. government's official web portal to all federal, state and local government web resources and services.